Location: Ferchesar
(52.6477°N, 12.4298°E)
Time: 17:22:47
(UTC+01:00)

Explorer 7 - Pass Details

Date: 14 December 2021
Orbit: 483 x 674 km, 50.3° (Epoch: 23 January)

Event Time Altitude Azimuth Distance (km) Brightness Sun altitude
Rises 08:34:57 0° 276° (W) 2,750 9.9 1.5°
Reaches altitude 10° 08:39:01 10° 238° (WSW) 1,791 9.3 1.9°
Maximum altitude 08:39:55 11° 225° (SW) 1,738 9.4 2.0°
Drops below altitude 10° 08:40:49 10° 212° (SSW) 1,765 9.6 2.1°
Sets 08:44:41 0° 172° (S) 2,599 11.2 2.5°
